Date String (YYYY-MM-DD hh:mm:ss) UTC,Instrument flags,absolute air pressure of the measurement (hPa),sample flow rate (lpm),inlet stack bypass flow (lpm),air temperature of the measurement (°C),ambient temperature measured by the external sensor (°C),aerosol sample conditioner tube jacket temperature (°C),OPC LED temperature (°C),internal box temperature (°C),relative humidity of the measurement (%),span deviation,mass concentration of particles derived from Lorenz-Mie calculation of OPC scattering (μg/m³),mass concentration of particles derived from Lorenz-Mie calculation of OPC scattering (μg/m³),mass concentration of particles derived from Lorenz-Mie calculation of OPC scattering (μg/m³)
DateTimeUTC,F1_M11,P_M11,Q1_M11,Q2_M11,T1_M11,T2_M11,T3_M11,T4_M11,T5_M11,U1_M11,ZSPAN_M11,X0_M11,X2_M11,X1_M11
2024-05-16 16:00:00,SystemResetWarning,0827.3,5.00,000.00,024.6,023.9,000.0,032.8,026.4,028.4,0000.0,0007.80,0002.90,0002.28
2024-05-16 16:01:00,SystemResetWarning,0827.4,5.01,000.00,024.6,024.0,000.0,032.8,026.4,029.3,0000.0,0007.31,0002.84,0002.30
2024-05-16 16:02:00,SystemResetWarning,0827.4,5.01,000.00,024.7,024.1,000.0,032.8,026.5,030.4,0000.0,0006.58,0002.84,0002.36
2024-05-16 16:03:00,SystemResetWarning,0827.4,5.01,000.00,024.7,024.2,000.0,032.8,026.6,030.6,0000.0,0006.35,0002.92,0002.44
2024-05-16 16:04:00,SystemResetWarning,0827.4,5.00,000.00,024.8,024.2,000.0,032.9,026.6,029.0,0000.0,0006.48,0003.00,0002.51
2024-05-16 16:05:00,SystemResetWarning,0827.4,5.00,000.00,024.8,024.3,000.0,032.9,026.7,028.4,0000.0,0006.58,0003.01,0002.53
2024-05-16 16:06:00,SystemResetWarning,0827.3,4.99,000.00,024.9,024.4,000.0,032.9,026.7,028.1,0000.0,0007.01,0003.05,0002.55
2024-05-16 16:07:00,SystemResetWarning,0827.3,5.00,000.00,024.9,024.4,000.0,033.0,026.7,027.6,0000.0,0006.61,0003.06,0002.57
2024-05-16 16:08:00,SystemResetWarning,0827.4,5.00,000.00,025.0,024.5,000.0,033.0,026.8,027.4,0000.0,0007.13,0003.08,0002.57
2024-05-16 16:09:00,SystemResetWarning,0827.4,4.99,000.00,025.0,024.1,000.0,033.1,026.6,026.7,0000.0,0008.17,0003.11,0002.58
2024-05-16 16:10:00,SystemResetWarning,0827.2,5.00,000.00,024.7,022.3,000.0,033.1,025.6,027.1,0000.0,0008.54,0003.11,0002.59
2024-05-16 16:11:00,SystemResetWarning,0827.2,5.00,000.00,024.3,021.4,000.0,033.1,025.0,028.9,0000.0,0009.15,0003.12,0002.60
2024-05-16 16:12:00,SystemResetWarning,0827.2,5.02,000.00,024.2,021.8,000.0,033.0,025.2,029.4,0000.0,0009.56,0003.15,0002.60
2024-05-16 16:13:00,SystemResetWarning,0827.2,5.00,000.00,024.2,022.2,000.0,032.9,025.4,028.8,0000.0,0009.63,0003.12,0002.54
2024-05-16 16:14:00,SystemResetWarning,0827.3,4.99,000.00,024.2,022.5,000.0,032.8,025.6,028.3,0000.0,0009.80,0003.03,0002.46
2024-05-16 16:15:00,SystemResetWarning,0827.3,5.00,000.00,024.2,022.8,000.0,032.7,025.8,029.1,0000.0,0010.05,0002.97,0002.40
2024-05-16 16:16:00,SystemResetWarning,0827.3,5.01,000.00,024.3,023.1,000.0,032.7,025.9,026.7,0000.0,0010.43,0002.97,0002.38
2024-05-16 16:17:00,SystemResetWarning,0827.3,5.01,000.00,024.3,023.3,000.0,032.7,026.0,027.6,0000.0,0010.16,0002.91,0002.34
2024-05-16 16:18:00,SystemResetWarning,0827.3,5.01,000.00,024.4,023.5,000.0,032.7,026.1,028.4,0000.0,0009.61,0002.85,0002.32
2024-05-16 16:19:00,SystemResetWarning,0827.3,5.00,000.00,024.4,023.6,000.0,032.7,026.2,028.2,0000.0,0009.01,0002.86,0002.34
2024-05-16 16:20:00,SystemResetWarning,0827.3,5.00,000.00,024.5,023.8,000.0,032.7,026.3,027.9,0000.0,0008.25,0002.86,0002.34
2024-05-16 16:21:00,SystemResetWarning,0827.3,5.00,000.00,024.5,023.9,000.0,032.7,026.3,027.8,0000.0,0007.99,0002.93,0002.35
2024-05-16 16:22:00,SystemResetWarning,0827.3,4.99,000.00,024.6,024.0,000.0,032.7,026.4,027.8,0000.0,0007.22,0002.93,0002.36
2024-05-16 16:23:00,SystemResetWarning,0827.4,4.99,000.00,024.6,024.1,000.0,032.8,026.5,028.9,0000.0,0006.49,0002.95,0002.39
2024-05-16 16:24:00,SystemResetWarning,0827.4,4.99,000.00,024.7,024.2,000.0,032.8,026.5,028.0,0000.0,0006.78,0002.99,0002.41
2024-05-16 16:25:00,SystemResetWarning,0827.3,5.00,000.00,024.7,024.2,000.0,032.8,026.6,028.2,0000.0,0007.73,0003.04,0002.43
2024-05-16 16:26:00,SystemResetWarning,0827.3,5.01,000.00,024.8,024.3,000.0,032.8,026.6,028.5,0000.0,0008.44,0003.06,0002.44
2024-05-16 16:27:00,SystemResetWarning,0827.3,5.01,000.00,024.8,024.4,000.0,032.9,026.7,027.4,0000.0,0008.19,0003.08,0002.47
2024-05-16 16:28:00,SystemResetWarning,0827.2,5.00,000.00,024.9,024.2,000.0,032.9,026.6,027.6,0000.0,0008.19,0003.10,0002.51
2024-05-16 16:29:00,SystemResetWarning,0827.2,5.00,000.00,024.6,022.5,000.0,033.0,025.6,027.3,0000.0,0008.26,0003.13,0002.52
2024-05-16 16:30:00,SystemResetWarning,0827.1,5.00,000.00,024.2,021.2,000.0,033.0,024.9,026.6,0000.0,0008.33,0003.12,0002.51
2024-05-16 16:31:00,SystemResetWarning,0827.2,5.01,000.00,024.1,021.5,000.0,032.9,025.0,027.0,0000.0,0008.34,0003.10,0002.49
2024-05-16 16:32:00,SystemResetWarning,0827.2,5.00,000.00,024.0,021.9,000.0,032.8,025.2,027.7,0000.0,0008.35,0003.04,0002.47
2024-05-16 16:33:00,SystemResetWarning,0827.1,4.98,000.00,024.0,022.3,000.0,032.7,025.4,026.6,0000.0,0008.55,0003.01,0002.45
2024-05-16 16:34:00,SystemResetWarning,0827.2,4.99,000.00,024.1,022.6,000.0,032.6,025.6,026.2,0000.0,0008.96,0002.97,0002.41
2024-05-16 16:35:00,SystemResetWarning,0827.1,5.02,000.00,024.1,022.9,000.0,032.6,025.7,026.4,0000.0,0009.40,0002.87,0002.37
2024-05-16 16:36:00,SystemResetWarning,0827.1,5.00,000.00,024.2,023.1,000.0,032.5,025.9,027.2,0000.0,0009.03,0002.80,0002.31
2024-05-16 16:37:00,SystemResetWarning,0827.1,5.00,000.00,024.2,023.3,000.0,032.5,026.0,027.6,0000.0,0008.35,0002.79,0002.28
2024-05-16 16:38:00,SystemResetWarning,0827.2,5.00,000.00,024.3,023.5,000.0,032.5,026.1,026.7,0000.0,0008.05,0002.80,0002.26
2024-05-16 16:39:00,SystemResetWarning,0827.2,5.01,000.00,024.4,023.6,000.0,032.5,026.2,027.1,0000.0,0008.12,0002.80,0002.22
2024-05-16 16:40:00,SystemResetWarning,0827.1,5.00,000.00,024.4,023.8,000.0,032.6,026.3,026.6,0000.0,0008.11,0002.76,0002.20
2024-05-16 16:41:00,SystemResetWarning,0827.1,5.00,000.00,024.5,023.9,000.0,032.6,026.3,025.9,0000.0,0008.01,0002.67,0002.16
2024-05-16 16:42:00,SystemResetWarning,0827.1,4.99,000.00,024.5,024.0,000.0,032.6,026.4,025.5,0000.0,0008.09,0002.64,0002.14
2024-05-16 16:43:00,SystemResetWarning,0827.1,5.00,000.00,024.6,024.1,000.0,032.6,026.4,025.3,0000.0,0008.09,0002.66,0002.13
2024-05-16 16:44:00,SystemResetWarning,0827.0,4.99,000.00,024.6,024.2,000.0,032.7,026.5,025.8,0000.0,0008.44,0002.65,0002.11
2024-05-16 16:45:00,SystemResetWarning,0827.1,5.01,000.00,024.7,024.2,000.0,032.7,026.6,025.5,0000.0,0008.05,0002.62,0002.10
2024-05-16 16:46:00,SystemResetWarning,0827.0,4.99,000.00,024.7,023.6,000.0,032.8,026.2,024.0,0000.0,0007.75,0002.62,0002.10
2024-05-16 16:47:00,SystemResetWarning,0827.0,5.01,000.00,024.3,021.7,000.0,032.9,025.2,024.2,0000.0,0006.60,0002.62,0002.09
2024-05-16 16:48:00,SystemResetWarning,0827.0,5.01,000.00,024.0,021.3,000.0,032.8,024.9,025.4,0000.0,0005.84,0002.54,0002.06
2024-05-16 16:49:00,SystemResetWarning,0827.0,5.01,000.00,024.0,021.7,000.0,032.7,025.1,022.9,0000.0,0005.98,0002.46,0002.02
2024-05-16 16:50:00,SystemResetWarning,0827.0,4.99,000.00,023.9,022.1,000.0,032.6,025.2,023.1,0000.0,0006.25,0002.37,0001.96
2024-05-16 16:51:00,SystemResetWarning,0827.0,5.00,000.00,024.0,022.4,000.0,032.5,025.5,025.0,0000.0,0006.41,0002.33,0001.92
2024-05-16 16:52:00,SystemResetWarning,0827.0,5.00,000.00,024.0,022.7,000.0,032.5,025.6,026.0,0000.0,0006.47,0002.34,0001.90
2024-05-16 16:53:00,SystemResetWarning,0827.0,5.01,000.00,024.1,023.0,000.0,032.4,025.7,025.8,0000.0,0006.49,0002.36,0001.89
2024-05-16 16:54:00,SystemResetWarning,0827.0,5.00,000.00,024.1,023.2,000.0,032.4,025.9,024.5,0000.0,0006.14,0002.31,0001.87
2024-05-16 16:55:00,SystemResetWarning,0827.0,5.00,000.00,024.2,023.4,000.0,032.4,026.0,023.7,0000.0,0006.18,0002.28,0001.85
2024-05-16 16:56:00,SystemResetWarning,0827.0,4.99,000.00,024.3,023.5,000.0,032.4,026.0,024.1,0000.0,0006.18,0002.31,0001.82
2024-05-16 16:57:00,SystemResetWarning,0827.0,4.99,000.00,024.3,023.7,000.0,032.5,026.1,025.6,0000.0,0006.09,0002.31,0001.81
2024-05-16 16:58:00,SystemResetWarning,0827.0,4.99,000.00,024.4,023.8,000.0,032.5,026.2,026.5,0000.0,0006.15,0002.36,0001.83
2024-05-16 16:59:00,SystemResetWarning,0827.0,5.00,000.00,024.4,023.9,000.0,032.5,026.3,026.6,0000.0,0007.10,0002.42,0001.85
